Kezdőlap
METAR-TAF:

METAR-TAF

Repülőterek :

Oelwein Municipal Airport

Oelwein, Iowa, Amerikai Egyesült Államok

földrajzi szélesség: 42-40-51N, földrajzi hosszúság: 091-58-28W, magasság: 328 m

Jelenlegi meteorológiai megfigyelések

A jelentés 26 perccel ezelõtt készült, 19:55 UTC
Déli szél 9 kt
Hőmérséklet 3°C
Páratartalom 81%
Légköri nyomás 1017 hPa
Látótávolság: 16.1 km
Derült ég

METAR: KOLZ 221955Z AUTO 18009KT 10SM CLR 03/M00 A3004 RMK A01

Idő: 14:21 (20:21 UTC)


TAF: hiányzik

Meteorológiai megfigyelések és előrejelzések több, mint 4000 repülőtéren (METAR és TAF jelentéseket).

A térképen piros és sárga pontok jelzik az elérhető meteorológiai állomásokat.

Mozgassa az egeret a pont fölött, hogy megjelenjen az állomás neve.

Azután kattintson az időjárási megfigyelések és előrejelzések megtekintéséhez.

A térkép megváltoztatása: kattintson a fekete keresztel jelölt zöld gombra ráközelítéshez, a vonallal jelölt zöld gombra távolításhoz, vagy a zöld nyilakra a szomszédos térképek eléréséhez.


METAR-TAF: